Date String (YYYY-MM-DD hh:mm:ss) UTC,Instrument flags,Ambient pressure (hPa),Sample flow (lpm),Bypass flow (lpm),Sample temperature (°C),Ambient temperature (°C),ASC tube jacket temperature (°C),LED temperature (°C),Box temperature (°C),Sample RH (%),Span deviation,Mass concentration (μg/m³),Mass concentration (μg/m³),Mass concentration (μg/m³)
DateTimeUTC,F1_M11,P_M11,Q1_M11,Q2_M11,T1_M11,T2_M11,T3_M11,T4_M11,T5_M11,U1_M11,ZSPAN_M11,X0_M11,X2_M11,X1_M11
2022-02-17 14:00:00,,0829.1,5.01,0.00,22.4,23.1,00.0,31.3,24.3,08.4,0000.0,0007.55,0004.88,0004.59
2022-02-17 14:01:00,,0829.1,4.99,0.00,22.5,23.1,00.0,31.3,24.4,08.3,0000.0,0007.62,0004.92,0004.61
2022-02-17 14:02:00,,0829.1,5.01,0.00,22.5,22.8,00.0,31.3,24.3,08.3,0000.0,0007.62,0004.94,0004.62
2022-02-17 14:03:00,,0829.2,5.00,0.00,22.4,22.5,00.0,31.3,24.2,08.3,0000.0,0007.97,0004.96,0004.64
2022-02-17 14:04:00,,0829.2,5.01,0.00,22.4,22.2,00.0,31.3,24.2,08.3,0000.0,0008.06,0004.99,0004.65
2022-02-17 14:05:00,,0829.2,4.99,0.00,22.4,22.0,00.0,31.3,24.1,08.3,0000.0,0007.82,0005.02,0004.68
2022-02-17 14:06:00,,0829.1,5.00,0.00,22.3,21.9,00.0,31.3,24.0,08.4,0000.0,0007.90,0005.07,0004.74
2022-02-17 14:07:00,,0829.1,5.00,0.00,22.3,21.7,00.0,31.3,24.0,08.4,0000.0,0007.86,0005.10,0004.78
2022-02-17 14:08:00,,0829.2,5.00,0.00,22.2,21.6,00.0,31.3,23.9,08.4,0000.0,0007.82,0005.11,0004.81
2022-02-17 14:09:00,,0829.2,5.01,0.00,22.2,21.5,00.0,31.3,23.8,08.5,0000.0,0007.88,0005.16,0004.83
2022-02-17 14:10:00,,0829.3,5.01,0.00,22.1,21.4,00.0,31.2,23.8,08.5,0000.0,0007.85,0005.17,0004.87
2022-02-17 14:11:00,,0829.3,5.00,0.00,22.1,21.3,00.0,31.2,23.7,08.5,0000.0,0008.77,0005.21,0004.91
2022-02-17 14:12:00,,0829.2,5.00,0.00,22.1,21.7,00.0,31.2,23.8,08.4,0000.0,0009.01,0005.24,0004.95
2022-02-17 14:13:00,,0829.2,5.01,0.00,22.2,22.4,00.0,31.2,24.0,08.3,0000.0,0009.27,0005.25,0004.97
2022-02-17 14:14:00,,0829.2,4.99,0.00,22.4,23.1,00.0,31.3,24.3,08.3,0000.0,0009.14,0005.25,0004.96
2022-02-17 14:15:00,,0829.2,5.01,0.00,22.4,23.0,00.0,31.3,24.3,08.2,0000.2,0008.76,0005.22,0004.94
2022-02-17 14:16:00,,0829.2,4.99,0.00,22.4,22.7,00.0,31.3,24.3,08.1,0000.0,0008.67,0005.16,0004.90
2022-02-17 14:17:00,,0829.2,5.00,0.00,22.4,22.4,00.0,31.3,24.2,08.1,0000.0,0008.59,0005.10,0004.84
2022-02-17 14:18:00,,0829.2,5.01,0.00,22.3,22.1,00.0,31.3,24.1,08.1,0000.0,0008.51,0005.03,0004.76
2022-02-17 14:19:00,,0829.2,5.01,0.00,22.3,21.9,00.0,31.3,24.0,08.1,0000.0,0008.48,0004.97,0004.70
2022-02-17 14:20:00,,0829.2,5.00,0.00,22.3,21.7,00.0,31.3,23.9,08.1,0000.0,0008.39,0004.88,0004.63
2022-02-17 14:21:00,,0829.2,4.99,0.00,22.2,21.6,00.0,31.3,23.8,08.0,0000.0,0008.37,0004.82,0004.57
2022-02-17 14:22:00,,0829.2,5.00,0.00,22.1,21.4,00.0,31.2,23.7,08.1,0000.0,0007.95,0004.75,0004.49
2022-02-17 14:23:00,,0829.2,5.01,0.00,22.1,21.3,00.0,31.2,23.7,08.1,0000.0,0007.21,0004.68,0004.41
2022-02-17 14:24:00,,0829.2,5.00,0.00,22.0,21.2,00.0,31.2,23.6,08.1,0000.0,0006.70,0004.65,0004.37
2022-02-17 14:25:00,,0829.2,5.00,0.00,22.1,21.7,00.0,31.2,23.7,08.1,0000.0,0007.33,0004.60,0004.33
2022-02-17 14:26:00,,0829.2,4.98,0.00,22.2,22.5,00.0,31.2,24.0,08.1,0000.0,0007.33,0004.57,0004.31
2022-02-17 14:27:00,,0829.2,5.01,0.00,22.3,23.1,00.0,31.3,24.3,08.0,0000.0,0007.27,0004.53,0004.27
2022-02-17 14:28:00,,0829.2,4.99,0.00,22.4,22.9,00.0,31.3,24.3,07.9,0000.0,0007.18,0004.49,0004.24
2022-02-17 14:29:00,,0829.2,5.00,0.00,22.4,22.6,00.0,31.3,24.2,07.9,0000.0,0007.21,0004.48,0004.23
2022-02-17 14:30:00,,0829.2,5.00,0.00,22.3,22.3,00.0,31.3,24.1,08.0,0000.0,0007.17,0004.46,0004.21
2022-02-17 14:31:00,,0829.2,5.00,0.00,22.3,22.0,00.0,31.3,24.0,08.0,0000.0,0007.07,0004.43,0004.19
2022-02-17 14:32:00,,0829.2,4.99,0.00,22.2,21.8,00.0,31.3,23.9,08.0,0000.0,0006.89,0004.38,0004.15
2022-02-17 14:33:00,,0829.2,5.01,0.00,22.2,21.6,00.0,31.2,23.8,08.0,0000.0,0006.68,0004.33,0004.12
2022-02-17 14:34:00,,0829.2,5.00,0.00,22.1,21.5,00.0,31.2,23.7,08.0,0000.0,0006.54,0004.26,0004.08
2022-02-17 14:35:00,,0829.2,4.99,0.00,22.1,21.4,00.0,31.2,23.7,07.9,0000.0,0006.73,0004.18,0004.01
2022-02-17 14:36:00,,0829.2,5.01,0.00,22.0,21.2,00.0,31.2,23.6,07.9,0000.0,0005.87,0004.08,0003.94
2022-02-17 14:37:00,,0829.2,5.01,0.00,22.0,21.5,00.0,31.2,23.6,07.8,0000.0,0005.51,0003.99,0003.85
2022-02-17 14:38:00,,0829.2,4.98,0.00,22.1,22.2,00.0,31.2,23.9,07.8,0000.0,0005.51,0003.93,0003.78
2022-02-17 14:39:00,,0829.2,5.02,0.00,22.2,22.9,00.0,31.2,24.1,07.7,0000.0,0005.44,0003.87,0003.72
2022-02-17 14:40:00,,0829.2,5.00,0.00,22.4,23.3,00.0,31.3,24.3,07.6,0000.0,0005.28,0003.78,0003.64
2022-02-17 14:41:00,,0829.2,4.99,0.00,22.4,23.0,00.0,31.3,24.3,07.6,0000.0,0005.11,0003.70,0003.57
2022-02-17 14:42:00,,0829.2,4.98,0.00,22.4,22.6,00.0,31.3,24.2,07.6,0000.0,0005.08,0003.66,0003.51
2022-02-17 14:43:00,,0829.3,5.01,0.00,22.3,22.2,00.0,31.3,24.0,07.6,0000.0,0005.10,0003.62,0003.46
2022-02-17 14:44:00,,0829.2,5.00,0.00,22.3,22.0,00.0,31.3,23.9,07.6,0000.0,0005.04,0003.57,0003.41
2022-02-17 14:45:00,,0829.2,5.00,0.00,22.2,21.8,00.0,31.2,23.9,07.6,0000.0,0004.95,0003.52,0003.37
2022-02-17 14:46:00,,0829.2,5.02,0.00,22.2,21.6,00.0,31.2,23.8,07.6,0000.0,0004.43,0003.49,0003.34
2022-02-17 14:47:00,,0829.2,4.99,0.00,22.1,21.4,00.0,31.2,23.7,07.6,0000.0,0004.38,0003.49,0003.33
2022-02-17 14:48:00,,0829.2,5.00,0.00,22.1,21.3,00.0,31.2,23.6,07.6,0000.0,0004.35,0003.47,0003.31
2022-02-17 14:49:00,,0829.2,5.02,0.00,22.0,21.2,00.0,31.2,23.5,07.6,0000.0,0004.22,0003.45,0003.30
2022-02-17 14:50:00,,0829.2,5.01,0.00,22.0,21.6,00.0,31.2,23.7,07.6,0000.0,0004.18,0003.44,0003.29
2022-02-17 14:51:00,,0829.5,4.99,0.00,22.1,22.4,00.0,31.2,23.9,07.5,0000.0,0004.18,0003.43,0003.29
2022-02-17 14:52:00,,0829.4,5.02,0.00,22.3,23.1,00.0,31.2,24.2,07.5,0000.0,0004.29,0003.45,0003.30
2022-02-17 14:53:00,,0829.3,5.00,0.00,22.4,23.2,00.0,31.3,24.3,07.5,0000.0,0004.24,0003.44,0003.31
2022-02-17 14:54:00,,0829.3,4.99,0.00,22.4,22.9,00.0,31.3,24.3,07.5,0000.0,0004.21,0003.45,0003.33
2022-02-17 14:55:00,,0829.4,5.00,0.00,22.4,22.5,00.0,31.3,24.2,07.5,0000.0,0004.30,0003.47,0003.34
2022-02-17 14:56:00,,0829.4,4.99,0.00,22.3,22.2,00.0,31.3,24.0,07.5,0000.0,0004.35,0003.48,0003.35
2022-02-17 14:57:00,,0829.4,5.00,0.00,22.3,22.0,00.0,31.3,23.9,07.6,0000.0,0004.39,0003.50,0003.36
2022-02-17 14:58:00,,0829.4,5.00,0.00,22.2,21.7,00.0,31.3,23.8,07.5,0000.0,0004.33,0003.49,0003.36
2022-02-17 14:59:00,,0829.3,5.00,0.00,22.2,21.6,00.0,31.2,23.8,07.5,0000.0,0004.30,0003.48,0003.36
